TimeCST,TemperatureF,Dew PointF,Humidity,Sea Level PressureIn,VisibilityMPH,Wind Direction,Wind SpeedMPH,Gust SpeedMPH,PrecipitationIn,Events,Conditions,WindDirDegrees,DateUTC
12:54 AM,30.9,26.1,82,30.18,10.0,Calm,Calm,-,N/A,,Clear,0,2012-11-25 06:54:00
1:54 AM,28.9,25.0,85,30.18,10.0,Calm,Calm,-,N/A,,Clear,0,2012-11-25 07:54:00
2:54 AM,28.9,25.0,85,30.18,10.0,Calm,Calm,-,N/A,,Clear,0,2012-11-25 08:54:00
3:54 AM,28.0,24.1,85,30.17,10.0,Calm,Calm,-,N/A,,Clear,0,2012-11-25 09:54:00
4:54 AM,28.0,24.1,85,30.16,10.0,Calm,Calm,-,N/A,,Clear,0,2012-11-25 10:54:00
5:54 AM,26.1,23.0,88,30.17,10.0,Calm,Calm,-,N/A,,Clear,0,2012-11-25 11:54:00
6:54 AM,27.0,24.1,89,30.19,10.0,Calm,Calm,-,N/A,,Clear,0,2012-11-25 12:54:00
7:54 AM,33.1,28.0,82,30.21,10.0,Calm,Calm,-,N/A,,Clear,0,2012-11-25 13:54:00
8:54 AM,44.1,30.0,58,30.22,10.0,SE,8.1,-,N/A,,Clear,140,2012-11-25 14:54:00
9:54 AM,50.0,28.0,43,30.22,10.0,South,8.1,-,N/A,,Clear,170,2012-11-25 15:54:00
10:54 AM,55.0,28.9,37,30.19,10.0,South,9.2,-,N/A,,Clear,170,2012-11-25 16:54:00
11:54 AM,57.0,27.0,32,30.16,10.0,South,8.1,-,N/A,,Clear,190,2012-11-25 17:54:00
12:54 PM,61.0,28.0,29,30.13,10.0,SSW,9.2,-,N/A,,Clear,200,2012-11-25 18:54:00
1:54 PM,62.1,27.0,26,30.10,10.0,South,6.9,-,N/A,,Clear,190,2012-11-25 19:54:00
2:54 PM,63.0,27.0,26,30.08,10.0,South,9.2,-,N/A,,Clear,170,2012-11-25 20:54:00
3:54 PM,62.1,28.0,28,30.08,10.0,South,9.2,-,N/A,,Clear,170,2012-11-25 21:54:00
4:54 PM,54.0,30.0,40,30.07,10.0,South,8.1,-,N/A,,Clear,180,2012-11-25 22:54:00
5:54 PM,48.9,30.9,50,30.08,10.0,SE,5.8,-,N/A,,Clear,140,2012-11-25 23:54:00
6:54 PM,46.0,33.1,61,30.09,10.0,SSE,6.9,-,N/A,,Clear,160,2012-11-26 00:54:00
7:54 PM,46.0,33.1,61,30.09,10.0,South,6.9,-,N/A,,Clear,170,2012-11-26 01:54:00
8:54 PM,46.0,33.1,61,30.09,10.0,South,6.9,-,N/A,,Clear,180,2012-11-26 02:54:00
9:54 PM,46.9,34.0,61,30.09,10.0,SSE,8.1,-,N/A,,Clear,160,2012-11-26 03:54:00
10:54 PM,46.9,36.0,66,30.09,10.0,South,9.2,-,N/A,,Clear,180,2012-11-26 04:54:00
11:54 PM,46.0,37.0,71,30.09,10.0,South,8.1,-,N/A,,Clear,170,2012-11-26 05:54:00